Location: Staunton
(38.1490°N, 79.0720°W)
Time: 14:04:11
(UTC-04:00)

ISS - Pass Details

Date: 16 July 2019
Orbit: 409 x 418 km, 51.6° (Epoch: 20 July)

Event Time Altitude Azimuth Distance (km) Brightness Sun altitude
Rises 21:38:02 0° 209° (SSW) 2,339 -0.1 -10.6°
Reaches altitude 10° 21:40:13 10° 200° (SSW) 1,479 -1.2 -11.0°
Maximum altitude 21:43:15 33° 134° (SE) 718 -3.1 -11.4°
Drops below altitude 10° 21:46:17 10° 68° (ENE) 1,483 -1.3 -11.9°
Sets 21:48:29 0° 59° (ENE) 2,347 -0.2 -12.2°
